Location: Dortmund
(51.5019°N, 7.6520°E)
Time: 23:27:44
(UTC+01:00)

ISS - Pass Details

Date: 14 November 2017
Orbit: 401 x 407 km, 51.6° (Epoch: 25 November)

Event Time Altitude Azimuth Distance (km) Brightness Sun altitude
Exits shadow 05:45:37 40° 204° (SSW) 611 -3.1 -18.5°
Drops below altitude 10° 05:48:39 10° 135° (SE) 1,451 -0.3 -18.1°
Sets 05:50:47 0° 128° (SE) 2,308 1.1 -17.7°
